Weather Roundup
Issued by NWS

Home | Current Version | Previous Version | Text Only | Print | Product List | Glossary On
Versions: 1 2 3 4 5 6 7 8 9 10 11 12 13 14 15 16 17 18 19 20 21 22 23 24 25 26 27 28 29 30 31 32 33 34 35 36 37 38 39 40 41 42 43 44 45 46 47 48 49 50
310
NZUS93 KARX 120859
HRRWXR

CURRENT HOURLY OBSERVATIONS ACROSS
MUCH OF THE UPPER MISSISSIPPI VALLEY
NATIONAL WEATHER SERVICE LA CROSSE WI
300 AM CST TUE DEC 12 2017


...SOUTHEAST MINNESOTA...


CITY           SKY/WX    TMP DP  RH WIND       PRES   REMARKS
ROCHESTER      PTCLDY    12   9  87 NW17      30.18R WCI  -5
ROCHESTER/MAYO FAIR      15  10  82 W15       30.19R WCI  -1
WINONA           N/A     18  10  73 NW3       30.21R
AUSTIN         NOT AVBL
ALBERT LEA     NOT AVBL
DODGE CENTER   CLEAR     10   7  85 NW15      30.18S WCI  -6
PRESTON        PTCLDY    14   9  83 NW15G21   30.16S WCI  -2
OWATONNA       CLEAR     10   5  79 NW13      30.22S WCI  -5
FARIBAULT      CLEAR     10   7  85 NW8       30.24R WCI  -1
$$

...ELSEWHERE IN MINNESOTA...


CITY           SKY/WX    TMP DP  RH WIND       PRES   REMARKS
MINNEAPOLIS    CLEAR     10   5  80 NW13      30.26R WCI  -5
INTNL FALLS    CLOUDY    -4  -8  83 W5        30.17F WCI -15
DULUTH         PTCLDY     1  -2  87 NW7       30.13S WCI -12
RED WING       CLEAR     12   5  73 NW8       30.22R WCI   1
REDWOOD FALLS  CLEAR     11   4  73 NW10      30.30S WCI  -3
MANKATO        CLEAR     10   5  80 NW12      30.27S WCI  -5
WORTHINGTON    CLEAR     12   9  87 NW10      30.28S WCI  -1
FAIRMONT       CLEAR     12   7  80 NW16      30.27S WCI  -5
$$

...SOUTHWEST WISCONSIN...


CITY           SKY/WX    TMP DP  RH WIND       PRES   REMARKS
LA CROSSE      PTCLDY    16   7  67 NW13      30.17R WCI   2
PRAIRIE DU CHI PTCLDY    19   9  65 NW9       30.16R WCI   7
BOSCOBEL       CLEAR     19   7  59 NW9       30.15R WCI   8
LONE ROCK      NOT AVBL
PLATTEVILLE    CLEAR     18  11  74 NW18      30.09S WCI   2
FORT MC COY    CLOUDY    16   8  71 NW9       30.15R WCI   5
CAMP DOUGLAS   MOCLDY    15   4  64 NW13      30.10R WCI   0
MAUSTON-NEW LI CLOUDY    17   7  67 NW16G22   30.09R WCI   1
VIROQUA        FAIR      15   9  79 NW15      30.09R WCI  -1
WIS DELLS      PTCLDY    16   6  64 NW12G22   30.07R WCI   3
$$

...ELSEWHERE IN WISCONSIN...


CITY           SKY/WX    TMP DP  RH WIND       PRES   REMARKS
MILWAUKEE      PTCLDY    22   8  55 NW14G26   29.99R WCI   9
MADISON        MOCLDY    17   7  64 N14G28    30.06R WCI   3
GREEN BAY      CLOUDY    18   8  65 NW14      30.01R WCI   4
EAU CLAIRE     NOT AVBL
BLACK RVR FLS  CLOUDY    16   6  64 NW9       30.14R WCI   4
MEDFORD        CLOUDY    11   2  66 N14       30.05R WCI  -5
WAUSAU         CLOUDY    14   3  61 N14G24    30.03R WCI  -1
WIS RAPIDS     FLURRIES  14   6  70 N14G23    30.09R WCI  -1
MARSHFIELD     CLOUDY    12   2  64 N18G28    30.05S WCI  -6
RICE LAKE      CLEAR      9   3  75 NW7       30.18R WCI  -2
$$

...NORTHEAST IOWA...


CITY           SKY/WX    TMP DP  RH WIND       PRES   REMARKS
WATERLOO       MOCLDY    16  11  80 NW16      30.21R WCI   1
DUBUQUE        CLEAR     17  10  74 NW18      30.11R WCI   1
DECORAH        CLEAR     14   9  79 NW9G16    30.15R WCI   2
MASON CITY     CLEAR     11   6  81 NW16      30.24S WCI  -6
CHARLES CITY   PTCLDY    16  12  86 NW14G20   30.21R WCI   1
OELWEIN        PTCLDY    16  12  86 NW12      30.18R WCI   3
$$

...ELSEWHERE IN IOWA...


CITY           SKY/WX    TMP DP  RH WIND       PRES   REMARKS
DES MOINES     CLEAR     17  10  74 NW10      30.28R WCI   5
IOWA CITY      CLEAR     24  13  62 NW15      30.20R WCI  11
FORT DODGE     CLEAR     14   7  73 VRB6      30.26F WCI   5
MARSHALLTOWN   CLEAR     14  11  87 NW10      30.23R WCI   1
CEDAR RAPIDS   CLEAR     20  12  71 NW17G26     N/A  WCI   5
$$

...NORTHERN ILLINOIS...


CITY           SKY/WX    TMP DP  RH WIND       PRES   REMARKS
CHICAGO-OHARE  FLURRIES  23  13  65 NW18G28   29.99R WCI   9
CHICAGO-MIDWAY PTCLDY    24  10  55 NW18G29   29.99R WCI  10
MOLINE         CLEAR     24  14  65 NW20G29   30.12R WCI  10
ROCKFORD       PTCLDY    20  10  65 NW13      30.07R WCI   7
PEORIA         PTCLDY    27  16  63 N14G25    30.08R WCI  16
$$

NOTE: "FAIR" INDICATES FEW OR NO CLOUDS BELOW 12,000 FEET WITH NO
SIGNIFICANT WEATHER AND/OR OBSTRUCTIONS TO VISIBILITY. WIND
SPEEDS ARE IN MILES-PER-HOUR.




USA.gov is the U.S. government's official web portal to all federal, state and local government web resources and services.